GW7165 Weather Reports


Display with metric or nautical units.
time (UTC)temp
F
wind
direction
speed
MPH
gust
MPH
rain 1hr
in
rain 24hr
in
rain mn
in
humidity
%
barometer
mb
20260506001536 81 329 3.0 6.0 0.00 0.00 0.00 60 1004.2
20260506001033 82 219 2.0 3.0 0.00 0.00 0.00 59 1003.8
20260506000530 82 343 1.0 1.0 0.00 0.00 0.00 59 1004.2
20260506000028 83 230 0.0 1.0 0.00 0.00 0.00 59 1004.2
20260505235526 83 58 0.0 1.0 0.00 0.00 0.00 59 1003.7
20260505235022 83 312 2.0 3.0 0.00 0.00 0.00 58 1003.8
20260505234519 84 355 1.0 2.0 0.00 0.00 0.00 57 1003.7
20260505234016 85 331 3.0 5.0 0.00 0.00 0.00 55 1003.7
20260505233514 86 302 3.0 3.0 0.00 0.00 0.00 53 1003.6
20260505233011 86 187 0.0 0.0 0.00 0.00 0.00 51 1003.3
20260505232509 86 328 0.0 0.0 0.00 0.00 0.00 50 1003.5
20260505232006 86 176 1.0 2.0 0.00 0.00 0.00 50 1003.3
20260505231503 88 293 3.0 5.0 0.00 0.00 0.00 49 1003.3
20260505231001 89 358 4.0 5.0 0.00 0.00 0.00 59 1003.1
20260505230458 89 241 1.0 1.0 0.00 0.00 0.00 59 1003.0
20260505225954 89 162 1.0 2.0 0.00 0.00 0.00 58 1002.6
20260505225452 89 121 0.0 0.0 0.00 0.00 0.00 58 1002.5
20260505224948 90 126 0.0 1.0 0.00 0.00 0.00 57 1002.4
20260505224445 91 143 0.0 0.0 0.00 0.00 0.00 57 1002.2
20260505223942 93 181 0.0 1.0 0.00 0.00 0.00 52 1002.6
20260505223439 93 151 0.0 0.0 0.00 0.00 0.00 49 1002.7
20260505222935 94 145 0.0 0.0 0.00 0.00 0.00 47 1002.4
20260505222431 93 149 0.0 0.0 0.00 0.00 0.00 48 1002.4
20260505221927 93 268 0.0 1.0 0.00 0.00 0.00 48 1002.5
20260505221425 93 173 0.0 0.0 0.00 0.00 0.00 49 1002.5
20260505220922 92 145 0.0 0.0 0.00 0.00 0.00 48 1002.4
20260505220419 93 123 3.0 3.0 0.00 0.00 0.00 49 1002.4
20260505215916 93 161 1.0 2.0 0.00 0.00 0.00 48 1002.4
20260505215414 93 147 0.0 0.0 0.00 0.00 0.00 49 1002.5
20260505214912 93 142 0.0 0.0 0.00 0.00 0.00 50 1002.3
20260505214409 93 147 1.0 2.0 0.00 0.00 0.00 49 1002.6
20260505213907 91 133 0.0 1.0 0.00 0.00 0.00 52 1002.8
20260505213404 92 72 0.0 0.0 0.00 0.00 0.00 50 1002.5
20260505212900 92 129 1.0 2.0 0.00 0.00 0.00 51 1002.5
20260505212357 92 126 0.0 1.0 0.00 0.00 0.00 50 1002.7
20260505211853 91 152 1.0 2.0 0.00 0.00 0.00 52 1002.8
20260505211351 91 204 1.0 3.0 0.00 0.00 0.00 51 1002.8
20260505210847 91 143 1.0 2.0 0.00 0.00 0.00 52 1003.1
20260505210344 91 131 1.0 2.0 0.00 0.00 0.00 53 1002.8
20260505205841 91 143 0.0 0.0 0.00 0.00 0.00 54 1003.2
20260505205340 91 140 1.0 2.0 0.00 0.00 0.00 53 1003.2
20260505204836 91 118 3.0 5.0 0.00 0.00 0.00 53 1003.1
20260505204334 90 204 1.0 1.0 0.00 0.00 0.00 55 1002.8
20260505203831 91 133 0.0 0.0 0.00 0.00 0.00 55 1003.1
20260505203327 90 106 1.0 2.0 0.00 0.00 0.00 55 1003.4
20260505202824 90 133 1.0 2.0 0.00 0.00 0.00 55 1003.2
20260505202320 90 100 1.0 3.0 0.00 0.00 0.00 55 1003.5
20260505201817 91 196 1.0 2.0 0.00 0.00 0.00 54 1003.3
20260505201314 91 164 1.0 5.0 0.00 0.00 0.00 54 1003.7
20260505200813 90 208 2.0 5.0 0.00 0.00 0.00 56 1003.8
20260505200309 89 112 0.0 0.0 0.00 0.00 0.00 56 1003.7
20260505195804 90 333 2.0 3.0 0.00 0.00 0.00 56 1003.8
20260505195305 89 165 0.0 1.0 0.00 0.00 0.00 60 1003.7
20260505194759 90 127 2.0 3.0 0.00 0.00 0.00 58 1003.9
20260505194256 89 184 0.0 1.0 0.00 0.00 0.00 58 1003.9
20260505193757 89 162 3.0 5.0 0.00 0.00 0.00 57 1003.6
20260505193255 89 342 1.0 2.0 0.00 0.00 0.00 59 1003.8
20260505192753 88 158 2.0 5.0 0.00 0.00 0.00 60 1003.8
20260505192250 87 176 0.0 1.0 0.00 0.00 0.00 62 1003.8
20260505191748 88 158 0.0 2.0 0.00 0.00 0.00 62 1003.9
20260505191246 88 103 3.0 6.0 0.00 0.00 0.00 61 1003.8
20260505190742 87 159 1.0 2.0 0.00 0.00 0.00 63 1003.7
20260505190237 87 122 0.0 0.0 0.00 0.00 0.00 62 1003.8
20260505185734 88 205 2.0 5.0 0.00 0.00 0.00 62 1003.7
20260505185231 86 139 5.0 6.0 0.00 0.00 0.00 63 1004.0
20260505184726 87 144 2.0 3.0 0.00 0.00 0.00 63 1003.8
20260505184224 87 127 0.0 0.0 0.00 0.00 0.00 63 1004.1
20260505183720 86 178 1.0 2.0 0.00 0.00 0.00 64 1004.2
20260505183218 87 126 0.0 0.0 0.00 0.00 0.00 62 1003.9
20260505182714 86 240 0.0 1.0 0.00 0.00 0.00 63 1004.0
20260505182211 86 161 3.0 5.0 0.00 0.00 0.00 64 1004.4
20260505181708 85 126 0.0 0.0 0.00 0.00 0.00 66 1004.2
20260505181206 85 230 0.0 0.0 0.00 0.00 0.00 64 1004.2
20260505180701 85 160 4.0 6.0 0.00 0.00 0.00 65 1004.0
20260505180159 86 149 2.0 7.0 0.00 0.00 0.00 65 1004.0
20260505175654 85 304 0.0 1.0 0.00 0.00 0.00 65 1004.3
20260505175151 85 163 0.0 0.0 0.00 0.00 0.00 67 1004.3
20260505174648 85 157 2.0 3.0 0.00 0.00 0.00 66 1004.3
20260505174144 85 208 1.0 1.0 0.00 0.00 0.00 66 1004.3
20260505173641 84 225 2.0 3.0 0.00 0.00 0.00 67 1004.1
20260505173137 84 87 4.0 7.0 0.00 0.00 0.00 66 1004.6
20260505172635 83 213 1.0 2.0 0.00 0.00 0.00 68 1004.5
20260505172132 83 106 2.0 3.0 0.00 0.00 0.00 68 1004.3
20260505171631 83 78 3.0 5.0 0.00 0.00 0.00 67 1004.2
20260505171129 83 118 2.0 6.0 0.00 0.00 0.00 68 1004.2
20260505170626 83 125 2.0 6.0 0.00 0.00 0.00 67 1004.2
20260505170122 84 290 1.0 3.0 0.00 0.00 0.00 66 1004.4
20260505165617 83 210 1.0 2.0 0.00 0.00 0.00 68 1004.3
20260505165114 83 140 3.0 5.0 0.00 0.00 0.00 68 1004.4
20260505164609 82 254 2.0 2.0 0.00 0.00 0.00 70 1004.3
20260505164107 82 176 0.0 1.0 0.00 0.00 0.00 70 1004.1
20260505163606 83 165 5.0 8.0 0.00 0.00 0.00 69 1004.1
20260505163102 82 179 9.0 15.0 0.00 0.00 0.00 70 1004.4
20260505162600 82 50 1.0 1.0 0.00 0.00 0.00 71 1004.2
20260505162058 80 83 1.0 2.0 0.00 0.00 0.00 72 1004.1
20260505161554 81 127 0.0 0.0 0.00 0.00 0.00 72 1004.1
20260505161052 80 126 2.0 5.0 0.00 0.00 0.00 73 1004.1
20260505160549 80 149 7.0 11.0 0.00 0.00 0.00 72 1004.1
20260505153026 78 136 7.0 13.0 0.00 0.00 0.00 76 1004.0
20260505152523 78 153 3.0 6.0 0.00 0.00 0.00 76 1004.1
20260505152018 79 161 1.0 3.0 0.00 0.00 0.00 76 1004.4
20260505151514 78 158 2.0 3.0 0.00 0.00 0.00 75 1004.3
20260505151011 78 259 1.0 2.0 0.00 0.00 0.00 77 1004.2
20260505150508 77 142 0.0 1.0 0.00 0.00 0.00 78 1004.1
20260505140433 74 161 2.0 2.0 0.00 0.00 0.00 83 1003.8
20260505124846 71 169 3.0 5.0 0.00 0.00 0.00 88 1003.5
20260505124343 70 160 4.0 6.0 0.00 0.00 0.00 88 1003.4
20260505123839 70 176 1.0 2.0 0.00 0.00 0.00 89 1003.3
20260505123336 70 182 3.0 5.0 0.00 0.00 0.00 89 1003.2
20260505122832 70 159 4.0 6.0 0.00 0.00 0.00 89 1003.5
20260505122329 70 143 1.0 1.0 0.00 0.00 0.00 89 1003.1
20260505121826 70 218 3.0 3.0 0.00 0.00 0.00 89 1003.2
20260505121323 70 123 4.0 6.0 0.00 0.00 0.00 89 1003.0
20260505120819 70 164 2.0 2.0 0.00 0.00 0.00 90 1002.6
20260505120315 70 208 2.0 2.0 0.00 0.00 0.00 90 1002.6
20260505115814 69 138 2.0 3.0 0.00 0.00 0.00 90 1003.0
20260505115311 69 264 3.0 3.0 0.00 0.00 0.00 90 1003.3
20260505114809 69 279 3.0 3.0 0.00 0.00 0.00 90 1003.3
20260505114305 69 210 2.0 3.0 0.00 0.00 0.00 89 1003.4
20260505113802 69 221 4.0 5.0 0.00 0.00 0.00 90 1002.8
20260505113258 69 134 3.0 3.0 0.00 0.00 0.00 89 1003.1
20260505112754 70 139 2.0 3.0 0.00 0.00 0.00 89 1003.1
20260505112252 70 100 2.0 3.0 0.00 0.00 0.00 89 1003.0
20260505111752 70 169 2.0 2.0 0.00 0.00 0.00 89 1002.8
20260505111248 70 172 4.0 5.0 0.00 0.00 0.00 89 1003.1
20260505110744 70 148 1.0 1.0 0.00 0.00 0.00 89 1003.1
20260505110243 70 160 1.0 2.0 0.00 0.00 0.00 89 1003.2
20260505102218 71 149 3.0 3.0 0.00 0.00 0.00 87 1002.5
20260505101716 71 130 3.0 3.0 0.00 0.00 0.00 87 1002.7
20260505101212 71 145 3.0 3.0 0.00 0.00 0.00 87 1002.8
20260505100708 71 122 3.0 6.0 0.00 0.00 0.00 87 1003.1
20260505100206 71 108 5.0 7.0 0.00 0.00 0.00 87 1002.8
20260505095701 71 155 0.0 0.0 0.00 0.00 0.00 87 1003.2
20260505095159 71 160 2.0 2.0 0.00 0.00 0.00 87 1003.1
20260505094654 71 185 2.0 2.0 0.00 0.00 0.00 87 1003.3
20260505094151 71 167 2.0 2.0 0.00 0.00 0.00 87 1002.8
20260505093648 71 85 2.0 3.0 0.00 0.00 0.00 87 1003.4
20260505093145 71 157 2.0 5.0 0.00 0.00 0.00 87 1003.2
20260505092642 71 148 2.0 2.0 0.00 0.00 0.00 87 1003.3
20260505092141 71 137 1.0 1.0 0.00 0.00 0.00 87 1003.3
20260505091637 71 167 1.0 2.0 0.00 0.00 0.00 87 1003.7
20260505091135 71 188 3.0 3.0 0.00 0.00 0.00 87 1003.7
20260505090632 71 135 2.0 2.0 0.00 0.00 0.00 87 1003.5
20260505090131 71 135 5.0 6.0 0.00 0.00 0.00 87 1003.7
20260505085628 71 211 5.0 9.0 0.00 0.00 0.00 86 1003.7
20260505085126 71 154 5.0 8.0 0.00 0.00 0.00 86 1003.8
20260505084623 71 96 2.0 2.0 0.00 0.00 0.00 86 1003.6
20260505084122 71 123 1.0 2.0 0.00 0.00 0.00 86 1003.3
20260505083619 71 155 1.0 1.0 0.00 0.00 0.00 86 1003.6
20260505083115 71 144 10.0 17.0 0.00 0.00 0.00 86 1003.9
20260505082611 71 155 3.0 5.0 0.00 0.00 0.00 86 1003.7
20260505082108 71 144 4.0 7.0 0.00 0.00 0.00 86 1003.6
20260505081604 71 164 3.0 3.0 0.00 0.00 0.00 86 1003.4
20260505081102 71 152 3.0 5.0 0.00 0.00 0.00 86 1003.4
20260505080557 71 236 4.0 5.0 0.00 0.00 0.00 86 1003.7
20260505080055 71 76 1.0 2.0 0.00 0.00 0.00 85 1003.8
20260505075550 71 170 1.0 2.0 0.00 0.00 0.00 85 1003.7
20260505075047 71 173 4.0 5.0 0.00 0.00 0.00 85 1003.9
20260505074544 71 236 3.0 6.0 0.00 0.00 0.00 85 1004.0
20260505074041 71 131 5.0 6.0 0.00 0.00 0.00 85 1004.0
20260505073539 71 168 8.0 16.0 0.00 0.00 0.00 84 1003.8
20260505073037 72 154 3.0 6.0 0.00 0.00 0.00 84 1003.9
20260505072532 72 185 3.0 3.0 0.00 0.00 0.00 84 1004.0
20260505072029 72 128 4.0 8.0 0.00 0.00 0.00 83 1004.2
20260505071524 72 139 2.0 3.0 0.00 0.00 0.00 83 1004.2
20260505071023 72 148 2.0 3.0 0.00 0.00 0.00 83 1004.2
20260505070520 72 174 3.0 3.0 0.00 0.00 0.00 83 1004.3
20260505070016 72 208 2.0 3.0 0.00 0.00 0.00 82 1004.7
20260505065512 72 132 3.0 5.0 0.00 0.00 0.00 82 1004.7
20260505065009 72 159 6.0 9.0 0.00 0.00 0.00 82 1004.5
20260505064506 72 203 2.0 3.0 0.00 0.00 0.00 82 1004.6
20260505064004 72 150 3.0 6.0 0.00 0.00 0.00 81 1004.8
20260505063501 73 141 1.0 2.0 0.00 0.00 0.00 81 1004.8
20260505062956 73 175 1.0 1.0 0.00 0.00 0.00 80 1004.7
20260505062454 73 180 2.0 3.0 0.00 0.00 0.00 80 1004.7
20260505061951 73 191 1.0 1.0 0.00 0.00 0.00 80 1004.7
20260505061449 73 162 1.0 2.0 0.00 0.00 0.00 79 1004.8
20260505060946 73 106 2.0 3.0 0.00 0.00 0.00 79 1004.6
20260505060443 73 137 1.0 1.0 0.00 0.00 0.00 78 1005.0
20260505055939 73 219 4.0 6.0 0.00 0.00 0.00 78 1004.9
20260505055435 73 147 5.0 8.0 0.00 0.00 0.00 77 1004.5
20260505054932 73 216 3.0 5.0 0.00 0.00 0.00 77 1005.0
20260505054430 74 203 6.0 8.0 0.00 0.00 0.00 76 1004.7
20260505053927 74 142 2.0 3.0 0.00 0.00 0.00 76 1004.8
20260505053424 74 136 7.0 9.0 0.00 0.00 0.00 75 1004.7
20260505052921 74 142 6.0 9.0 0.00 0.00 0.00 75 1004.7
20260505052418 74 152 6.0 11.0 0.00 0.00 0.00 75 1004.8
20260505051915 74 82 3.0 3.0 0.00 0.00 0.00 75 1004.8
20260505051412 74 237 3.0 6.0 0.00 0.00 0.00 75 1005.1
20260505050910 74 210 5.0 11.0 0.00 0.00 0.00 75 1005.1
20260505050408 74 141 4.0 5.0 0.00 0.00 0.00 74 1005.2
20260505041336 75 215 3.0 5.0 0.00 0.00 0.00 73 1005.2
20260505040833 75 129 1.0 1.0 0.00 0.00 0.00 73 1005.1
20260505040331 75 149 2.0 3.0 0.00 0.00 0.00 73 1004.9
20260505035827 75 137 1.0 2.0 0.00 0.00 0.00 72 1005.1
20260505035323 75 113 2.0 3.0 0.00 0.00 0.00 72 1005.0
20260505034821 75 212 2.0 2.0 0.00 0.00 0.00 72 1005.1
20260505034317 75 147 4.0 7.0 0.00 0.00 0.00 72 1005.1
20260505033814 75 134 2.0 3.0 0.00 0.00 0.00 72 1004.9
20260505033311 75 137 2.0 3.0 0.00 0.00 0.00 72 1005.1
20260505032809 75 129 2.0 3.0 0.00 0.00 0.00 72 1005.1
20260505032305 75 152 1.0 2.0 0.00 0.00 0.00 72 1005.1
20260505031802 75 122 1.0 2.0 0.00 0.00 0.00 72 1005.0
20260505031258 75 166 5.0 7.0 0.00 0.00 0.00 72 1005.3
20260505030756 75 144 7.0 14.0 0.00 0.00 0.00 72 1005.1
20260505030252 75 115 2.0 3.0 0.00 0.00 0.00 72 1005.3
20260505025747 75 172 1.0 1.0 0.00 0.00 0.00 71 1005.6
20260505025246 75 161 1.0 1.0 0.00 0.00 0.00 71 1005.3
20260505024743 75 227 8.0 14.0 0.00 0.00 0.00 71 1005.3
20260505024240 75 166 5.0 6.0 0.00 0.00 0.00 71 1005.2
20260505023738 75 163 5.0 6.0 0.00 0.00 0.00 71 1004.9
20260505023235 75 158 5.0 7.0 0.00 0.00 0.00 71 1005.3
20260505022732 75 147 1.0 2.0 0.00 0.00 0.00 71 1005.2
20260505022229 75 158 1.0 1.0 0.00 0.00 0.00 71 1005.0
20260505021726 75 164 3.0 3.0 0.00 0.00 0.00 71 1005.0
20260505021223 75 156 1.0 2.0 0.00 0.00 0.00 71 1004.9
20260505020718 75 154 3.0 6.0 0.00 0.00 0.00 70 1005.0
20260505020214 76 174 3.0 5.0 0.00 0.00 0.00 70 1005.2
20260505015712 76 147 3.0 5.0 0.00 0.00 0.00 70 1004.9
20260505015208 76 129 4.0 7.0 0.00 0.00 0.00 70 1004.9
20260505014705 76 123 3.0 3.0 0.00 0.00 0.00 70 1004.9
20260505014203 76 134 1.0 2.0 0.00 0.00 0.00 70 1005.2
20260505013659 76 124 0.0 1.0 0.00 0.00 0.00 69 1005.0
20260505013157 76 162 3.0 5.0 0.00 0.00 0.00 69 1005.0
20260505012655 76 128 4.0 7.0 0.00 0.00 0.00 68 1005.0
20260505012152 76 166 4.0 6.0 0.00 0.00 0.00 68 1004.8
20260505011652 77 166 1.0 2.0 0.00 0.00 0.00 68 1005.2
20260505011150 77 116 2.0 2.0 0.00 0.00 0.00 68 1005.0
20260505010645 77 115 4.0 5.0 0.00 0.00 0.00 68 1005.0
20260505010142 77 136 1.0 2.0 0.00 0.00 0.00 68 1005.1
20260505005638 77 151 3.0 5.0 0.00 0.00 0.00 67 1005.1
20260505005135 77 147 1.0 1.0 0.00 0.00 0.00 67 1005.0
20260505004632 77 226 2.0 5.0 0.00 0.00 0.00 67 1005.0
20260505004129 77 189 3.0 3.0 0.00 0.00 0.00 66 1005.1
20260505003626 77 184 4.0 9.0 0.00 0.00 0.00 66 1005.2
20260505003124 77 144 7.0 8.0 0.00 0.00 0.00 66 1005.2
20260505002619 78 138 5.0 8.0 0.00 0.00 0.00 65 1005.0
20260505002118 78 170 5.0 7.0 0.00 0.00 0.00 65 1005.4